Regional Weather Roundup
Issued by NWS

Home | Current Version | Previous Version | Graphics & Text | Print | Product List | Glossary On
Versions: 1 2 3 4 5 6 7 8 9 10 11 12 13 14 15 16 17 18 19 20 21 22 23 24 25 26 27 28 29 30 31 32 33 34 35 36 37 38 39 40 41 42 43 44 45 46 47 48 49 50
000
ASUS43 KLMK 180602
RWRKY
KENTUCKY REGIONAL WEATHER ROUNDUP
NATIONAL WEATHER SERVICE LOUISVILLE KY
200 AM EDT THU SEP 18 2014

NOTE "FAIR" INDICATES FEW OR NO CLOUDS BELOW 12,000 FEET
WITH NO SIGNIFICANT WEATHER AND/OR OBSTRUCTIONS TO VISIBILITY.

KYZ001>023-026-027-061>063-070>075-180700-
WESTERN AND SOUTH CENTRAL KENTUCKY

CITY           SKY/WX    TMP DP  RH WIND       PRES   REMARKS
PADUCAH        MOCLDY    61  56  83 CALM      29.97S HAZE
HENDERSON      CLOUDY    63  54  72 E8        29.99F
OWENSBORO      CLOUDY    64  58  81 NE5       30.00F
HOPKINSVILLE   CLOUDY    61  61 100 NE3       29.98F
BOWLING GREEN  CLOUDY    61  57  87 CALM      30.00S
GLASGOW        PTCLDY    58  58  99 CALM      30.00S
$$

KYZ024-025-028>034-038-045-046-053-180700-
NORTH CENTRAL KENTUCKY

CITY           SKY/WX    TMP DP  RH WIND       PRES   REMARKS
LOUISVILLE/SDF CLOUDY    60  53  77 N5        30.02R
LOUISVILLE/LOU CLOUDY    59  53  80 NW3       30.02S
FORT KNOX      CLOUDY    59  53  80 N5        30.00S
$$

KYZ035>037-039>044-047>052-055>060-089>105-180700-
NORTHEAST KENTUCKY

CITY           SKY/WX    TMP DP  RH WIND       PRES   REMARKS
LEXINGTON      CLOUDY    56  52  86 CALM      30.02S
COVINGTON      CLEAR     54  48  80 CALM      30.02S
FRANKFORT      CLOUDY    54  52  93 NW3       30.01S
$$

KYZ054-064>069-076>088-106>120-180700-
SOUTHEAST KENTUCKY

CITY           SKY/WX    TMP DP  RH WIND       PRES   REMARKS
JACKSON        PTCLDY    56  54  93 CALM      30.01R
LONDON         PTCLDY    58  53  84 N3        30.00S
SOMERSET       NOT AVBL
MIDDLESBORO    CLEAR     54  54  98 CALM      30.01R
MONTICELLO     MOCLDY    58  58 100 CALM      30.02R
$$




USA.gov is the U.S. government's official web portal to all federal, state and local government web resources and services.